Regional Weather Roundup
Issued by NWS Wakefield, VA

Home | Current Version | Previous Version | Text Only | Print | Product List | Glossary Off
Versions: 1 2 3 4 5 6 7 8 9 10 11 12 13 14 15 16 17 18 19 20 21 22 23 24 25 26 27 28 29 30 31 32 33 34 35 36 37 38 39 40 41 42 43 44 45 46 47 48 49 50

000
ASUS41 KAKQ 230215
RWRAKQ

REGIONAL WEATHER ROUNDUP
NATIONAL WEATHER SERVICE WAKEFIELD VA
1000 PM EDT MON AUG 22 2016

Note: "fair" indicates few or no clouds below 12,000 feet with no
significant weather and/or obstructions to visibility. * = Denotes
station may not report precipitation (e.g., rain,snow,etc.),
thunder or fog.

VAZ042-051-052>054-056-230300-
NORTHERN VIRGINIA

CITY           SKY/WX    TMP DP  RH WIND       PRES   REMARKS
WASH NATIONAL  PTCLDY    77  59  53 N6        30.19R
DULLES         PTCLDY    69  57  65 CALM      30.20R
FORT BELVOIR   CLEAR     66  63  89 CALM      30.18R
QUANTICO       NOT AVBL
FREDERICKSBRG* CLEAR     68  64  85 CALM      30.18R
STAFFORD*      CLEAR     64  63  95 CALM      30.23R
WARRENTON      CLEAR     64  58  83 CALM      30.20R
CULPEPER*      PTCLDY    67  66  97 CALM      30.21R
MANASSAS*      CLEAR     66  66 100 CALM      30.19R
LEESBURG*      CLEAR     68  64  88 CALM      30.21R
WINCHESTER     CLEAR     63  57  82 NW3       30.22R
FRONT ROYAL*   CLOUDY    64  63  94 CALM      30.21R
LURAY*         FAIR      64  64 100 CALM      30.23R
$$

VAZ048-049-060>072-079>083-230300-
CENTRAL AND SOUTH CENTRAL VIRGINIA

CITY           SKY/WX    TMP DP  RH WIND       PRES   REMARKS
RICHMOND       PTCLDY    70  60  70 NE5       30.18R
CHESTERFIELD*  FAIR      66  52  59 CALM      30.20R
PETERSBURG*    CLEAR     65  65 100 CALM      30.20R
HANOVER        CLEAR     65  60  84 CALM      30.20R
TAPPAHANNOCK*  CLEAR     66  66 100 CALM      30.19R
QUINTON*       FAIR      67  64  91 CALM      30.18R
CHARLOTTSVILLE CLOUDY    70  63  78 CALM      30.21R
GORDONSVILLE*  FAIR      64  63  94 CALM      30.19R
ORANGE*          N/A     64  64 100 CALM      30.22R
LOUISA*        CLEAR     64  63  94 CALM      30.20R
BUMPASS*       FAIR      65  63  93 CALM      30.20R
FARMVILLE*     CLOUDY    66  66 100 CALM      30.19R
CREWE*         FAIR      64  64 100 CALM      30.20R
FORT PICKETT*  NOT AVBL
CHASE CITY*    FAIR      72  58  60 CALM      30.20R
CLARKSVILLE*   FAIR      68  63  83 CALM      30.19R
SOUTH HILL*    CLEAR     66  63  89 CALM      30.25R
LAWRENCEVILLE* FAIR      70  64  79 CALM      30.19R
EMPORIA*       CLEAR     68  63  83 CALM      30.20R
$$

VAZ088>098-230300-
SOUTHEAST VIRGINIA

CITY           SKY/WX    TMP DP  RH WIND       PRES   REMARKS
NORFOLK        CLEAR     78  65  63 CALM      30.17R
VIRGINIA BEACH PTCLDY    77  64  64 CALM      30.17R
NORFOLK NAVAL  PTCLDY    72  66  81 CALM      30.19R
WEST POINT*    CLEAR     66  64  92 CALM      30.20R
SALUDA*        FAIR      69  65  85 CALM      30.17R
NEWPORT NEWS   CLEAR     67  63  87 CALM      30.18R
LANGLEY AFB    CLEAR     72  65  78 N2        30.17R
FORT EUSTIS    CLEAR     71  62  73 CALM      30.16R
WILLIAMSBURG*  CLEAR     72  66  83 CALM      30.19R
HR EXEC AP*    FAIR      64  61  88 CALM      30.20R
FRANKLIN*      MOCLDY    68  64  85 CALM      30.19R
US460-WAKEFLD  PTCLDY    68  62  81 CALM      30.19R
$$

VAZ020-022-025-037-045-230300-
WEST CENTRAL AND SOUTHWEST VIRGINIA

CITY           SKY/WX    TMP DP  RH WIND       PRES   REMARKS
STAUNTON*      CLOUDY    67  60  76 N3        30.25R
WAYNESBORO*    CLOUDY    68  60  74 CALM      30.24R
HOT SPRINGS VA CLEAR     60  52  73 W8        30.33R
LYNCHBURG      CLOUDY    66  62  87 CALM      30.22R
DANVILLE       PTCLDY    66  64  93 CALM      30.20R
SOUTH BOSTON*  NOT AVBL
MARTINSVILLE   PTCLDY    65  64  96 CALM      30.24R
ROANOKE        PTCLDY    71  56  58 SE3       30.25R
BLACKSBURG     PTCLDY    62  57  85 CALM      30.31R
DUBLIN*        PTCLDY    67  57  70 CALM      30.29R
MARION*        CLEAR     61  59  94 CALM      30.33R
HILLSVILLE*    PTCLDY    66  57  72 N3        30.29R
RICHLANDS*     FAIR      64  56  77 E3        30.31R
WISE*          CLOUDY    63  50  63 CALM      30.31R
ABINGDON*      PTCLDY    65  61  87 CALM      30.27R
$$

MDZ021>025-VAZ099-100-230300-
SOUTHERN MARYLAND AND THE DELMARVA PENINSULA

CITY           SKY/WX    TMP DP  RH WIND       PRES   REMARKS
PATUXENT RIVER CLEAR     69  62  78 CALM      30.18R
BAY BRIDGE APT CLEAR     73  59  60 E5        30.18R
LEONARDTOWN    CLEAR     64  61  88 CALM      30.20R
DOVER          CLEAR     67  63  85 N3        30.17R
GEORGETOWN     CLEAR     68  61  78 CALM      30.18R
EASTON         CLEAR     70  66  89 CALM      30.22R
CAMBRIDGE      CLEAR     64  63  94 CALM      30.18R
SALISBURY      CLEAR     68  63  84 CALM      30.18R
OCEAN CITY     CLEAR     67  63  87 CALM      30.18R
WALLOPS ISLAND CLEAR     72  63  73 N3        30.18R
ACCOMACK*      CLEAR     70  64  81 E3        30.18R
$$

NCZ012>017-030>032-230300-
NORTH CENTRAL AND EASTERN NORTH CAROLINA

CITY           SKY/WX    TMP DP  RH WIND       PRES   REMARKS
ROANOKE RAPIDS FAIR      68  66  94 CALM      30.18R
RALEIGH        PTCLDY    73  61  65 N3        30.19R
ELIZABETH CITY CLEAR     70  64  81 CALM      30.18R
AHOSKIE*       CLEAR     68  65  90 CALM      30.18R
EDENTON*       CLEAR     75  66  74 CALM      30.18R
CURRITUCK*       N/A     72  67  82 CALM      30.19R
KILL DEVIL HLS CLEAR     70  64  81 CALM      30.17R
MANTEO         CLEAR     72  66  81 CALM      30.18R
CAPE HATTERAS  CLEAR     75  65  70 NE5       30.17R
TARBORO*       FAIR      69  68  96 CALM      30.18R
GOLDSBORO      PTCLDY    75  67  75 CALM      30.15R
WASHINGTON     CLEAR     72  67  84 CALM      30.17R
GREENVILLE     CLEAR     70  68  94 CALM      30.18R
NEW BERN       MOCLDY    74  68  81 CALM      30.18R
WILMINGTON     CLEAR     76  72  87 CALM      30.16R
$$

VAZ048-230300-
ELSEWHERE

CITY           SKY/WX    TMP DP  RH WIND       PRES   REMARKS
HARRISBURG PA  CLEAR     67  60  78 CALM      30.19R
BALTIMORE      CLEAR     68  61  78 CALM      30.19R
ANNAPOLIS      CLEAR     73  68  84 CALM      30.18R
ANDREWS AFB    CLEAR     66  61  82 CALM      30.18R
PHILADELPHIA   CLEAR     73  49  42 N10       30.19R
HENDERSON NC   CLEAR     65  62  90 CALM      30.20R
GREENSBORO     MOCLDY    74  60  61 CALM      30.21R
ROCKY MOUNT    CLEAR     69  66  90 CALM      30.18R
$$

VAZ100-230300-
MARINE

STATION/POSITION TIME  TEMP    WIND        PRES    WAVE   SWELL
                       AIR SEA DIR/SP/G            HT/PER HT/PER
                 (UTC) (F)     (DEG/KT/KT) (MB)    (FT/S) (FT/S)
CAPE MAY NJ      0100   78 77              1020.5R
LEWES DE         0100   78 76              1020.9R
OCEAN-CITY-INLET 0100   77 79              1021.4R
WACHAPREAGUE VA  0100   74 84              1021.2R
THOMAS POINT MD  0200   79 83  350/  7/  8 1023.4R
GOOSES REEF MD   0100   82 83  360/ 10/ 12 1021.6R   1/ 3
COVE POINT MD    0100   80                 1021.7R
SOLOMONS ISLAND  0100   78 85                N/A
BISHOPS HEAD MD  0100   78 83              1021.5R
PINEY POINT MD   0100           10/  4/  5   N/A
POTOMAC MD       0100   80 84  340/  6/  6 1020.2R   1/ 3
CAMBRIDGE MD     0100   78 85              1020.4R
LEWISETTA VA     0100   77 83              1021.0R
RAPPAHANNOCK LGT 0100                      1021.7R
STINGRAY PT      0100   81 85  270/ 10/ 12 1021.6R   1
YORK RVR RNG VA  0100   81                 1020.7R
YORKTOWN VA      0100   80 84              1020.9R
JAMESTOWN VA     0100   78 87   10/  4/  4   N/A     0
DOMINION TERM VA 0100   81                 1021.3R
KIPTOPEKE VA     0100      79                N/A
CHES BAY BRIDGE  0100   80 80              1021.0R
CAPE HENRY VA    0100   78                   N/A
WILLOUBY STN VA  0100   80                   N/A
CAPE HENRY BUOY  0112      78                N/A     3/ 5
1ST LANDING BUOY 0100   79 78   80/  6/  6 1020.9R   1/ 4
CAPE CHARLES BUO 0126      77                N/A     2/ 5
OFFSHORE WE BUOY 0121      81                N/A     3/ 6
64NM E OF VA BCH 0150   80 82  340/ 12/ 14 1021.0R   2/ 6   2/ 6
DUCK PIER NC     0100   78 77              1020.5R
44100 DUCK FRF   0105      81                N/A     3/ 5
44056 DUCK FRF   0111      77                N/A     3/ 6
OREGON INLET NC  0100   76 78              1021.1R
HATTERAS NC      0100   79 82              1020.7R
DIAMOND SHLS NC  0150   81 85   50/ 10/ 14 1021.2R   3/ 7   3/ 7
CAPE LOOKOUT NC  0200   81      80/  7/  8 1021.2R
$$



USA.gov is the U.S. government's official web portal to all federal, state and local government web resources and services.